North Myrtle Beach, SC

5:54 AM EDT on September 24, 2017 (GMT -0400)
Grand Strand

Weather History for KCRE - February, 2013

Change the Weather History Date:

Sunday, February 3, 2013

  Actual Average Record
Temperature  
Mean Temperature 48 °F 46 °F  
Max Temperature 60 °F 55 °F 75 °F (1990)
Min Temperature 36 °F 37 °F 17 °F (1993)
Degree Days  
Heating Degree Days 17 19  
Month to date heating degree days 67 57  
Since 1 July heating degree days 1356 1525  
Cooling Degree Days 0 0  
Month to date cooling degree days 0 0  
Year to date cooling degree days 2 0  
Moisture  
Dew Point 32 °F    
Average Humidity 57    
Maximum Humidity 85    
Minimum Humidity 29    
Precipitation  
Precipitation 0.00 in 0.10 in 1.16 in (2016)
Month to date precipitation 0.00 0.32  
Year to date precipitation 0.64 4.01  
Sea Level Pressure  
Sea Level Pressure 29.97 in    
Wind  
Wind Speed 7 mph (West)    
Max Wind Speed 20 mph    
Max Gust Speed 30 mph    
Visibility 10 miles    
Events      
T = Trace of Precipitation, MM = Missing Value Source: NWS Daily Summary

Daily Weather History Graph

Daily Weather History Graph

Search for Another Location

Airport or City:

Trip Planner

Search our weather history database for the weather conditions in past years. The results will help you decide how hot, cold, wet, or windy it might be!

Date:

Astronomy

Feb. 03, 2013 Rise Set
Actual Time 7:09 AM EST 5:48 PM EST
Civil Twilight 6:43 AM EST 6:14 PM EST
Nautical Twilight 6:14 AM EST 6:43 PM EST
Astronomical Twilight 5:44 AM EST 7:13 PM EST
Moon 12:34 AM EST (2/3) 11:25 AM EST (2/3)
Length of Visible Light 11h 30m
Length of Day
10h 38m
Waning Gibbous, 49% of the Moon is Illuminated
Feb 3
Waning Gibbous
Feb 10
New
Feb 17
First Quarter
Feb 25
Full
Mar 4
Last Quarter

Hourly Weather History & Observations

Time (EST) Temp. Windchill Dew Point Humidity Pressure Visibility Wind Dir Wind Speed Gust Speed Precip Events Conditions
12:53 AM 46.0 °F 43.9 °F 36.0 °F 68% 30.06 in 10.0 mi WNW 4.6 mph - N/A   Overcast
1:53 AM 45.0 °F 42.6 °F 36.0 °F 71% 30.04 in 10.0 mi West 4.6 mph - N/A   Mostly Cloudy
2:53 AM 43.0 °F - 35.1 °F 74% 30.00 in 10.0 mi Calm Calm - N/A   Partly Cloudy
3:53 AM 41.0 °F 39.0 °F 35.1 °F 79% 29.99 in 10.0 mi WSW 3.5 mph - N/A   Clear
4:53 AM 41.0 °F 38.0 °F 34.0 °F 76% 29.98 in 10.0 mi West 4.6 mph - N/A   Clear
5:53 AM 37.9 °F 32.7 °F 33.1 °F 83% 29.97 in 10.0 mi SW 6.9 mph - N/A   Clear
6:53 AM 39.9 °F 35.8 °F 33.1 °F 77% 29.98 in 10.0 mi West 5.8 mph - N/A   Clear
7:53 AM 39.9 °F 35.8 °F 34.0 °F 79% 30.01 in 10.0 mi West 5.8 mph - N/A   Clear
8:53 AM 44.1 °F 39.5 °F 35.1 °F 71% 30.01 in 10.0 mi West 8.1 mph - N/A   Clear
9:53 AM 46.9 °F - 33.1 °F 59% 30.01 in 10.0 mi WNW 15.0 mph 21.9 mph N/A   Clear
10:53 AM 50.0 °F - 28.9 °F 44% 30.01 in 10.0 mi WNW 15.0 mph 20.7 mph N/A   Clear
11:53 AM 52.0 °F - 25.0 °F 35% 29.98 in 10.0 mi NW 9.2 mph 23.0 mph N/A   Clear
12:53 PM 55.0 °F - 27.0 °F 34% 29.94 in 10.0 mi Variable 6.9 mph 16.1 mph N/A   Clear
1:53 PM 55.9 °F - 28.0 °F 34% 29.91 in 10.0 mi West 13.8 mph 24.2 mph N/A   Partly Cloudy
2:53 PM 57.9 °F - 28.0 °F 32% 29.89 in 10.0 mi West 15.0 mph 27.6 mph N/A   Mostly Cloudy
3:53 PM 60.1 °F - 28.0 °F 30% 29.89 in 10.0 mi West 17.3 mph 25.3 mph N/A   Overcast
4:53 PM 57.0 °F - 28.0 °F 33% 29.90 in 10.0 mi WNW 9.2 mph 23.0 mph N/A   Partly Cloudy
5:53 PM 54.0 °F - 28.9 °F 38% 29.91 in 10.0 mi WNW 3.5 mph - N/A   Clear
6:53 PM 46.9 °F - 34.0 °F 61% 29.94 in 10.0 mi Calm Calm - N/A   Clear
7:53 PM 42.1 °F - 34.0 °F 73% 29.96 in 10.0 mi Calm Calm - N/A   Clear
8:53 PM 39.9 °F - 33.1 °F 77% 29.97 in 10.0 mi Calm Calm - N/A   Clear
9:53 PM 37.9 °F - 33.1 °F 83% 29.99 in 10.0 mi Calm Calm - N/A   Clear
10:53 PM 46.0 °F 42.5 °F 28.9 °F 51% 30.01 in 10.0 mi West 6.9 mph - N/A   Clear
11:53 PM 43.0 °F - 28.0 °F 56% 30.01 in 10.0 mi Calm Calm - N/A   Clear